Location: Peebles
(55.6412°N, 3.1714°W)
Time: 00:12:12
(UTC+00:00)

Cosmos 1892 Rocket - Visible Passes

Search period start: 28 January 2022 00:00
Search period end: 07 February 2022 00:00
Orbit: 607 x 632 km, 82.5° (Epoch: 27 January)

Date Brightness Start Highest point End Pass type
(mag) Time Alt. Az. Time Alt. Az. Time Alt. Az.
28 Jan 6.5 03:33:24 14° NE 03:33:24 14° NE 03:35:37 10° E visible
28 Jan 3.8 05:10:38 41° N 05:12:07 70° ENE 05:16:34 10° SSE visible
28 Jan 4.9 06:47:52 16° WNW 06:49:30 19° W 06:52:37 10° SW visible
28 Jan 4.4 17:47:10 10° SSE 17:50:59 29° E 17:54:52 10° NNE visible
28 Jan 4.7 19:24:29 10° SW 19:28:44 43° WNW 19:33:03 10° N visible
29 Jan 6.1 03:52:00 19° ENE 03:52:00 19° ENE 03:54:29 10° ESE visible
29 Jan 3.4 05:29:15 69° WNW 05:29:36 73° W 05:34:03 10° S visible
29 Jan 5.4 07:06:30 12° WNW 07:06:38 12° WNW 07:08:18 10° W visible
29 Jan 3.8 18:04:03 10° SSE 18:08:18 47° E 18:12:36 10° NNE visible
29 Jan 5.6 19:42:32 10° SW 19:46:24 28° WNW 19:50:18 10° N visible
30 Jan 5.8 04:10:48 22° ESE 04:10:48 22° ESE 04:12:52 10° SE visible
30 Jan 4.2 05:48:04 37° SW 05:48:04 37° SW 05:51:13 10° SSW visible
30 Jan 3.5 18:21:15 10° S 18:25:42 77° E 18:30:11 10° NNE visible
30 Jan 6.2 20:00:56 10° WSW 20:04:09 19° WNW 20:07:24 10° NNW visible
31 Jan 5.9 04:29:44 17° SE 04:29:44 17° SE 04:30:52 10° SE visible
31 Jan 5.4 06:07:00 16° SW 06:07:00 16° SW 06:08:04 10° SSW visible
31 Jan 4.0 18:38:45 10° SSW 18:43:11 66° WNW 18:47:40 10° N visible
31 Jan 6.6 20:19:54 10° W 20:22:01 13° NW 20:24:09 10° NNW visible
01 Feb 4.9 18:56:32 10° SW 19:00:46 41° WNW 19:05:03 10° N visible
02 Feb 3.8 17:36:01 10° S 17:40:18 49° E 17:44:39 10° NNE visible
02 Feb 5.7 19:14:37 10° WSW 19:18:26 27° WNW 19:22:18 10° N visible
03 Feb 3.6 17:53:15 10° S 17:57:42 81° E 18:02:14 10° NNE visible
03 Feb 6.3 19:33:04 10° WSW 19:36:12 18° WNW 19:39:23 10° NNW visible
04 Feb 4.1 18:10:47 10° SSW 18:15:13 63° WNW 18:19:42 10° N visible
04 Feb 6.6 19:52:07 10° W 19:54:04 13° NW 19:56:03 10° NNW visible
05 Feb 5.0 18:28:35 10° SW 18:32:48 39° WNW 18:37:03 10° N visible
06 Feb 5.8 18:46:43 10° WSW 18:50:29 26° WNW 18:54:17 10° N visible
